Regional Weather Roundup
Issued by NWS Kansas City/Pleasant Hill, MO

Home | Current Version | Previous Version | Text Only | Print | Product List | Glossary On
Versions: 1 2 3 4 5 6 7 8 9 10 11 12 13 14 15 16 17 18 19 20 21 22 23 24 25 26 27 28 29 30 31 32 33 34 35 36 37 38 39 40 41 42 43 44 45 46 47 48 49 50
000
ASUS43 KEAX 241711
RWREAX

WEATHER ROUNDUP FOR EASTERN KANSAS AND NORTHWEST MISSOURI
NATIONAL WEATHER SERVICE KANSAS CITY/PLEASANT HILL MO
1200 PM CDT FRI OCT 24 2014

KSZ040-057-103>105-MOZ028-029-037-043-241800-
...KANSAS CITY METROPOLITAN AREA...

CITY           SKY/WX    TMP DP  RH WIND       PRES   REMARKS
K.C. INTL      CLOUDY    66  60  81 SW12      30.04S
K.C. DOWNTOWN  PTSUNNY   70  60  70 SW9       30.03F
LEES SUMMIT    MOSUNNY   66  59  78 SW12      30.06S
OLATHE - IXD   PTSUNNY   67  60  78 S12       30.05F
OLATHE - OJC   PTSUNNY   66  60  81 VRB7      30.04F
LAWRENCE       CLOUDY    67  60  78 SW8       30.03F

$$

MOZ001>008-011>017-020>025-030>033-038>040-044>046-053-054-241800-
...NORTHERN AND CENTRAL MISSOURI...

CITY           SKY/WX    TMP DP  RH WIND       PRES   REMARKS
ST. JOSEPH     CLOUDY    68  61  78 SW12      30.01F
MOSBY          PTSUNNY   64  59  82 S7        30.04S
WHITEMAN AFB   MOSUNNY   67  58  70 SW8       30.06F
CLINTON        PTSUNNY   68  59  73 SW9       30.09S HAZE
SEDALIA        PTSUNNY   68  57  68 S12       30.08F
WARSAW         NOT AVBL
MARSHALL       PTSUNNY   72  61  68 S6        30.07F
CHILLICOTHE      N/A     61  58  90 S9        30.05F
MOBERLY        CLOUDY    63  59  88 S7        30.09  FOG
KIRKSVILLE     CLOUDY    60  60 100 S10       30.06F FOG

$$

MOZ041-047>049-056>058-063>065-088>090-097-241800-
...EASTERN AND SOUTHERN MISSOURI...

CITY           SKY/WX    TMP DP  RH WIND       PRES   REMARKS
ST. LOUIS INTL PTSUNNY   68  56  65 W6        30.12F
SPIRIT OF STL  MOSUNNY   67  55  65 W6        30.11F
COLUMBIA       CLOUDY    66  59  78 S9        30.10F
JEFFERSON CITY CLOUDY    67  57  70 S7        30.10F
MEXICO         MOSUNNY  N/A N/A N/A S7        30.10F
HANNIBAL       FOG       59  55  88 SW7       30.10S VSB 3/4
ROLLA          MOSUNNY   64  54  69 S8        30.11F
LEBANON        PTSUNNY   68  55  64 SW5       30.13F
OSAGE BEACH    CLOUDY    66  55  68 SW5       30.11F
SPRINGFIELD    CLOUDY    69  57  65 SW9       30.12F
BRANSON        CLOUDY    68  55  64 SW5       30.16S
NEVADA         MOSUNNY   68  57  68 SW8       30.10S
JOPLIN         MOSUNNY   69  57  65 SW14      30.11F
WEST PLAINS    MOSUNNY   66  54  65 VRB5      30.16S

$$

IAZ060-094-KSZ022-034>040-054-083-096-NEZ052-066-093-241800-
...KANSAS...SOUTHEAST NEBRASKA AND IOWA...

CITY           SKY/WX    TMP DP  RH WIND       PRES   REMARKS
TOPEKA         CLOUDY    69  62  78 S7        30.02F
MANHATTAN      CLOUDY    69  62  78 SW12      30.02S
EMPORIA        CLOUDY    67  62  84 S10       30.05S
CHANUTE        PTSUNNY   69  60  73 SW9       30.08F
WICHITA        CLOUDY    70  60  70 S13       30.07S
OMAHA          CLOUDY    68  59  73 SW8       29.93F
LINCOLN        CLOUDY    68  59  73 W9        29.96S
FALLS CITY     CLOUDY    68  62  81 SW13      29.97F
LAMONI         CLOUDY    59  59 100 S12       30.00F FOG
DES MOINES     CLOUDY    63  60  90 S12       29.95F FOG

$$




USA.gov is the U.S. government's official web portal to all federal, state and local government web resources and services.